Location: Rogalle
(42.8890°N, 1.1916°E)
Time: 09:52:12
(UTC+00:00)

PSLV R/B - Pass Details

Date: 13 December 2025
Orbit: 561 x 587 km, 98.0° (Epoch: 21 January)

Event Time Altitude Azimuth Distance (km) Brightness Sun altitude
Rises 17:39:10 0° 136° (SE) 2,745 6.6 -13.7°
Reaches altitude 10° 17:41:33 10° 123° (ESE) 1,857 5.7 -14.1°
Enters shadow 17:42:16 14° 117° (ESE) 1,625 5.3 -14.3°
Exits shadow 17:45:33 24° 51° (NE) 1,200 4.5 -14.8°
Drops below altitude 10° 17:48:13 10° 12° (NNE) 1,880 5.7 -15.3°
Sets 17:50:38 0° 359° (N) 2,787 6.7 -15.7°
